Skip Page Navigation
NASA JPL Caltech
NASA Logo - Jet Propulsion Laboratory + View the NASA Portal
+ Near-Earth Object (NEO) Program
Search JPL
JPL Home Earth Solar System Stars & Galaxies Technology
JPL Solar System Dynamics
BODIES ORBITS EPHEMERIDES TOOLS PHYSICAL DATA DISCOVERY FAQ SITE MAP
JPL Small-Body Database Browser
Search: [ help ]  
(2000 RN77)
Classification: Aten [NEO]          SPK-ID: 3061547
Ephemeris | Orbit Diagram | Orbital Elements | Physical Parameters | Close-Approach Data ]

[ hide orbit diagram ]
Orbit Diagram
Note: Make sure you have Java enabled on your browser to see the applet. This applet is provided as a 3D orbit visualization tool. The applet was implemented using 2-body methods, and hence should not be used for determining accurate long-term trajectories (over several years or decades) or planetary encounter circumstances. For accurate long-term ephemerides, please instead use our Horizons system.
Orbit Viewer

Additional Notes: the orbits shown in the applet are color coded. The planets are white lines, and the asteroid/comet is a blue line. The bright white line indicates the portion of the orbit that is above the ecliptic plane, and the darker portion is below the ecliptic plane. Likewise for the asteroid/comet orbit, the light blue indicates the portion above the ecliptic plane, and the dark blue the portion below the ecliptic plane.

Orbit Viewer applet originally written and kindly provided by Osamu Ajiki (AstroArts), and further modified by Ron Baalke (JPL).


Orbital Elements at Epoch 2456400.5 (2013-Apr-18.0) TDB
Reference: JPL 40 (heliocentric ecliptic J2000)
 Element Value Uncertainty (1-sigma)   Units 
e .3177853141701334 8.5396e-07  
a .9502892265447266 1.6231e-08 AU
q .6483012661347175 8.0391e-07 AU
i 16.10312315707971 4.7908e-05 deg
node 312.793858787471 1.9136e-05 deg
peri 211.7820877920107 6.5944e-05 deg
M 44.00970624501345 0.0001481 deg
tp 2456359.135469017541
(2013-Mar-07.63546902)
0.0001393 JED
period 338.3624301144336
0.93
8.6689e-06
2.373e-08
d
yr
n 1.063947908986966 2.7259e-08 deg/d
Q 1.252277186954736 2.1389e-08 AU
  Orbit Determination Parameters
   # obs. used (total)      230  
   data-arc span      4391 days (12.02 yr)  
   first obs. used      2000-09-08  
   last obs. used      2012-09-16  
   planetary ephem.      DE405  
   SB-pert. ephem.      SB405-CPV-2  
   condition code      0  
   fit RMS      .34375  
   data source      ORB  
   producer      Otto Matic  
   solution date      2013-Jan-02 15:01:11  

Additional Information
 Earth MOID = .106855 AU 
 T_jup = 6.254 
[ show covariance matrix ]

Ephemeris | Orbit Diagram | Orbital Elements | Physical Parameters | Close-Approach Data ]

Physical Parameter Table
Parameter Symbol Value Units Sigma Reference Notes
absolute magnitude H 19.39 mag .50901 40 autocmod 2.5b

[ show close-approach data ]
Ephemeris | Orbit Diagram | Orbital Elements | Physical Parameters | Close-Approach Data ]
ABOUT SSD CREDITS/AWARDS PRIVACY/COPYRIGHT GLOSSARY LINKS
FirstGov 2013-May-19 09:47 UT
(server date/time)  
NASA Home Page
Site Manager:   Donald K. Yeomans
Webmaster  Alan B. Chamberlin